Location: Observatory
(52.1446°N, 0.4624°W)
Time: 06:24:24
(UTC+00:00)

ISS - Pass Details

Date: 05 December 2019
Orbit: 411 x 421 km, 51.6° (Epoch: 15 December)

Event Time Altitude Azimuth Distance (km) Brightness Sun altitude
Rises 18:10:21 0° 282° (WNW) 2,361 1.3 -20.2°
Reaches altitude 10° 18:12:29 10° 276° (W) 1,498 0.1 -20.5°
Maximum altitude 18:15:43 46° 202° (SSW) 574 -2.9 -21.0°
Enters shadow 18:15:59 45° 185° (S) 585 -3.0 -21.0°
